Location: Sears
(37.7625°N, 100.1060°W)
Time: 21:12:04
(UTC+00:00)

Aureole 1 Rocket - Pass Details

Date: 29 October 2020
Orbit: 379 x 1377 km, 73.9° (Epoch: 01 December)

Event Time Altitude Azimuth Distance (km) Brightness Sun altitude
Rises 12:31:06 0° 191° (S) 3,722 7.1 -7.0°
Reaches altitude 10° 12:33:59 10° 189° (S) 2,611 6.3 -6.4°
Maximum altitude 12:39:51 71° 107° (ESE) 788 3.9 -5.3°
Drops below altitude 10° 12:44:16 10° 24° (NNE) 1,984 5.8 -4.5°
Sets 12:46:13 0° 22° (NNE) 2,768 6.5 -4.1°
